Voltar ao catálogo

STARLINK-5538

AtivoComunicaçõesSSO
NORAD 56357·PAYLOAD·🇺🇸 United States

Lançado Apr 27, 2023 de Vandenberg Space Force Base

Loading…

Próximas Passagens (próximas 24 horas)

TLE

AtualizadoSource: CelesTrak SupGP

Época: Sep 14, 2026, 22:29 UTC

1 56357C 23058AS  26257.93729167  .00057477  00000+0  17843-2 0  2571
2 56357  97.2846 254.7242 0001693  85.0773 112.0363 15.33407875    19

Acompanhe STARLINK-5538 em tempo real com AllMySat

Download on the App Store